Weather History for Garrison, ND

Change the Weather History Date:

Wednesday, December 18, 2013

  Actual Average Record
Temperature  
Mean Temperature 29 °F -  
Max Temperature 36 °F 23 °F 51 °F (2011)
Min Temperature 22 °F 5 °F -20 °F (1996)
Degree Days  
Heating Degree Days 36    
Month to date heating degree days 1056  
Moisture  
Dew Point 17 °F    
Average Humidity 78    
Maximum Humidity 92    
Minimum Humidity 64    
Precipitation  
Precipitation 0.00 in - - ()
Month to date precipitation 0.92  
Year to date precipitation 30.14  
Sea Level Pressure  
Sea Level Pressure 29.78 in    
Wind  
Wind Speed 12 mph (NW)    
Max Wind Speed 29 mph    
Max Gust Speed 35 mph    
Averages and records for this station are not official NWS values.
T = Trace of Precipitation, MM = Missing Value Source: NWS Daily Summary

Daily Weather History Graph

Daily Weather History Graph

Search for Another Location

Airport:

Trip Planner

Search our weather history database for the weather conditions in past years. The results will help you decide how hot, cold, wet, or windy it might be!

Date:

Astronomy

Dec. 18, 2013 Rise Set
Actual Time 8:29 AM CST 4:55 PM CST
Civil Twilight 7:53 AM CST 5:31 PM CST
Nautical Twilight 7:14 AM CST 6:10 PM CST
Astronomical Twilight 6:36 AM CST 6:48 PM CST
Moon 6:35 PM CST (12/18) 9:05 AM CST (12/18)
Length of Visible Light 9h 37m
Length of Day
8h 25m
Full, 98% of the Moon is Illuminated
Dec 18
Full
Dec 25
Last Quarter
Jan 1
New
Jan 7
First Quarter
Jan 15
Full

Hourly Weather History & Observations

Time (CST) Temp. Windchill Dew Point Humidity Pressure Visibility Wind Dir Wind Speed Gust Speed Precip Events Conditions
12:52 AM 23.0 °F 13.1 °F 19.0 °F 85% 29.69 in - SSW 9.2 mph - N/A   Unknown
1:52 AM 21.9 °F 15.7 °F 19.0 °F 89% 29.67 in - SSW 4.6 mph - N/A   Unknown
2:52 AM 23.0 °F - 19.0 °F 85% 29.66 in - Calm Calm - N/A   Unknown
3:52 AM 27.0 °F 16.7 °F 21.0 °F 78% 29.65 in - West 11.5 mph - N/A   Unknown
4:52 AM 26.1 °F 18.4 °F 19.9 °F 78% 29.64 in - West 6.9 mph - N/A   Unknown
5:52 AM 26.1 °F 17.6 °F 19.9 °F 78% 29.63 in - West 8.1 mph - N/A   Unknown
6:52 AM 24.1 °F 16.0 °F 19.0 °F 81% 29.63 in - West 6.9 mph - N/A   Unknown
7:52 AM 28.0 °F 18.1 °F 21.0 °F 75% 29.62 in - WNW 11.5 mph - N/A   Unknown
8:52 AM 28.0 °F 17.0 °F 21.0 °F 75% 29.62 in - West 13.8 mph - N/A   Unknown
9:52 AM 27.0 °F 17.3 °F 21.0 °F 78% 29.65 in - West 10.4 mph - N/A   Unknown
10:52 AM 30.0 °F 22.4 °F 21.9 °F 72% 29.67 in - West 8.1 mph - N/A   Unknown
11:52 AM 34.0 °F 28.0 °F 24.1 °F 67% 29.67 in - WNW 6.9 mph - N/A   Unknown
12:52 PM 36.0 °F 27.1 °F 25.0 °F 64% 29.68 in - WNW 13.8 mph - N/A   Unknown
1:52 PM 35.1 °F 23.5 °F 27.0 °F 72% 29.70 in - NW 21.9 mph 29.9 mph N/A   Unknown
2:52 PM 33.1 °F 20.6 °F 26.1 °F 75% 29.74 in - NW 23.0 mph - N/A   Unknown
3:52 PM 30.9 °F 18.1 °F 25.0 °F 79% 29.78 in - NNW 21.9 mph - N/A   Unknown
4:52 PM 28.9 °F 15.1 °F 25.0 °F 85% 29.83 in - NNW 23.0 mph - N/A   Unknown
5:52 PM 24.1 °F 9.0 °F 21.0 °F 88% 29.90 in - NNW 21.9 mph 32.2 mph N/A   Unknown
6:52 PM 19.9 °F 6.7 °F 16.0 °F 85% 29.93 in - North 13.8 mph 25.3 mph N/A   Unknown
7:52 PM 15.1 °F -0.1 °F 10.0 °F 80% 30.00 in - NNE 15.0 mph 24.2 mph N/A   Unknown
8:52 PM 10.0 °F -5.9 °F 3.9 °F 76% 30.05 in - North 13.8 mph 21.9 mph N/A   Unknown
9:52 PM 5.0 °F -6.9 °F -0.9 °F 76% 30.10 in - North 6.9 mph - N/A   Unknown
10:52 PM 3.0 °F -10.5 °F -2.0 °F 80% 30.14 in - North 8.1 mph - N/A   Unknown
11:52 PM 1.9 °F -11.8 °F -2.9 °F 80% 30.16 in - North 8.1 mph 18.4 mph N/A   Unknown